Regional Weather Roundup
Issued by NWS

Home | Current Version | Previous Version | Text Only | Print | Product List | Glossary Off
Versions: 1 2 3 4 5 6 7 8 9 10 11 12 13 14 15 16 17 18 19 20 21 22 23 24 25 26 27 28 29 30 31 32 33 34 35 36 37 38 39 40 41 42 43 44 45 46 47 48 49 50

000
ASUS45 KCYS 292010
RWRWY

WYOMING REGIONAL WEATHER ROUNDUP
NATIONAL WEATHER SERVICE CHEYENNE WY
200 PM MDT MON SEP 29 2014

NOTE:  "FAIR" INDICATES FEW OR NO CLOUDS BELOW 12,000 FEET
WITH NO SIGNIFICANT WEATHER AND/OR OBSTRUCTIONS TO VISIBILITY.

WYZ001-292100-
YELLOWSTONE NATIONAL PARK

CITY           SKY/WX    TMP DP  RH WIND       PRES   REMARKS
LK YELLOWSTONE   N/A     50  37  61 VRB7      30.00F
W YELLOWSTONE  NOT AVBL

$$
WYZ002>013-054>058-071-098>099-292100-
NORTHERN WYOMING

CITY           SKY/WX    TMP DP  RH WIND       PRES   REMARKS
JACKSON        CLOUDY    45  43  93 S16       30.01S
CODY           CLOUDY    57  46  67 SE13      29.90F
GREYBULL       MOSUNNY   61  49  64 VRB6      29.89F
WORLAND        PTSUNNY   62  48  60 NE5       29.89F
SHERIDAN       CLOUDY    60  49  66 W5        29.90F
BUFFALO        MOSUNNY   62  49  62 S18G24    29.92F
GILLETTE       SUNNY     64  50  60 S16       29.92F
HULETT         CLOUDY    61  52  72 S10G17    29.97
NEWCASTLE      CLOUDY    59  48  67 SE12      29.98

$$
WYZ014>020-022>026-101>103-292100-
CENTRAL WYOMING

CITY           SKY/WX    TMP DP  RH WIND       PRES   REMARKS
BIG PINEY      CLOUDY    49  37  63 W13       30.02F
PINEDALE       LGT RAIN  45  39  81 SW8       30.03S
DUBOIS         CLOUDY    46  41  81 NW3       29.98F
LANDER         MOSUNNY   60  45  57 NW9       29.91F
RIVERTON       MOSUNNY   62  46  55 VRB7      29.93F
CASPER         PTSUNNY   61  46  57 SE7       29.95F
DOUGLAS        SUNNY     66  47  50 SE13      29.96F

$$
WYZ021-027>030-104>119-292100-
SOUTHERN WYOMING

CITY           SKY/WX    TMP DP  RH WIND       PRES   REMARKS
EVANSTON       CLOUDY    48  41  76 S9        30.03F
KEMMERER       CLOUDY    50  37  62 W12       30.03F
FORT BRIDGER   FAIR      56  39  54 W9        30.05F
ROCK SPRINGS   PTSUNNY   53  38  56 SW9       30.02F
DIXON          FAIR      57  41  56 W8        30.03F
RAWLINS        PTSUNNY   56  35  45 S12       30.01F
SARATOGA         N/A     57  36  44 W18       30.02F
LARAMIE        PTSUNNY   56  46  69 SE15      30.00F
CHEYENNE       MOSUNNY   62  43  49 E9        29.98F
TORRINGTON     CLOUDY    62  52  69 VRB3      29.94F
PINE BLUFFS    CLOUDY    66  50  55 E12       29.97F

$$


USA.gov is the U.S. government's official web portal to all federal, state and local government web resources and services.